Preview of NWS' New Version of Forecast
This preview is not operational and should not be used for support decisions.

Regional Weather Roundup (RWR)

Issued by National Weather Service (NWS)

                            
000
ASCA42 TJSJ 190110
RWRPR 
PUERTO RICO/U.S. VIRGIN ISLANDS HOURLY WEATHER ROUNDUP
NATIONAL WEATHER SERVICE SAN JUAN PR
900 PM AST TUE JUN 18 2019

PRZ001>002-007>008-010-190200-
PUERTO RICO
  
CITY           SKY/WX    TMP DP  RH WIND       PRES   REMARKS
SAN JUAN LMM   PTCLDY    81  75  83 E13       30.10R                  
AGUADILLA      CLOUDY    81  75  83 E12G22    30.10R                  
CEIBA          CLOUDY    82  75  78 NE9       30.11R                  
$$

VIZ001>002-190200-
U.S. VIRGIN ISLANDS
  
CITY           SKY/WX    TMP DP  RH WIND       PRES   REMARKS
CHARLOTTE AMA  CLEAR     82  72  69 NE9       30.09R                  
CHRISTIANSTED  PTCLDY    81  73  78 NE10      30.09R                  
$$

HOURLY WEATHER ROUNDUP FOR THE NEWS MEDIA
  
CITY           SKY/WX    TMP DP  RH WIND       PRES   REMARKS
ORLANDO        FAIR      78  74  87 S8        30.01R                  
NEW YORK       CLOUDY    69  69 100 CALM      29.86S                  
NEWARK         CLOUDY    70  68  93 NE8       29.85S FOG              
CHICAGO        MOCLDY    74  53  48 E9        29.85S                  
HARTFORD       RAIN      64  62  93 NE6       29.89F FOG              
BOSTON         CLOUDY    64  60  87 CALM      29.90F                  
DALLAS         PTCLDY    91  65  41 S6        29.80F HX  93           
PHILADELPHIA   MOCLDY    73  68  84 VRB7      29.87R                  
LOS ANGELES    PTSUNNY   66  57  72 W10       29.94S                  
WASHINGTON DC  MOCLDY    72  69  90 S7        29.91S